Flag for U.S.A. Weather past 2 weeks in Juneau, Alaska, U.S.A.

Now
41 °F

Light rain. Mostly cloudy.


Feels Like: 34 °F
Forecast: 41 / 47 °F
Wind: 13 mph from Southeast

Location: Juneau International Airport

Current Time: Apr 19, 2015 at 11:58:31 AM

Latest Report: Apr 19, 2015 at 10:53 AM


Visibility: 7 mi

Pressure: 30.16 "Hg

Humidity: 93%

Dew point: 39 °F

Location of JuneauLocation

Historic Weather in Juneau — Graph

°F

Juneau temperature yesterday

Maximum temperature yesterday: 42 °F (at 12:53 PM)
Minimum temperature yesterday: 39 °F (at 12:53 AM)
Average temperature yesterday: 41 °F

Past Weeks' High & Low Weather Summary

 TemperatureHumidityPressure
High52 °F (Apr 4, 4:53 PM)100% (Apr 13, 3:53 AM)30.40 "Hg (Apr 13, 3:53 AM)
Low29 °F (Apr 5, 6:53 AM)45% (Apr 5, 4:53 PM)29.24 "Hg (Apr 10, 9:53 AM)
Average41 °F83%29.82 "Hg
* Reported Apr 4 9:53 AM — Apr 19 9:53 AM, Juneau, Weather by CustomWeather, © 2015

Note: Actual official high and low records may vary slightly from our data, if they occured in-between our weather recording intervals... More about our weather records

Advertising

Juneau weather history for previous 24 hours

 ConditionsComfort  
Time TempWeatherWind HumidityBarometerVisibility
9:53 AM
Sun, Apr 19
40 °FLight rain. More clouds than sun.16 mph93%30.16 "Hg7 mi
8:53 AM40 °FRain. Fog.20 mph89%30.16 "Hg5 mi
7:53 AM41 °FLight rain. Mostly cloudy.17 mph86%30.17 "Hg7 mi
6:53 AM41 °FLight rain. Mostly cloudy.18 mph89%30.17 "Hg9 mi
5:53 AM41 °FLight rain. Mostly cloudy.14 mph89%30.18 "Hg7 mi
4:53 AM41 °FLight rain. Mostly cloudy.18 mph89%30.19 "Hg7 mi
3:53 AM41 °FLight rain. Overcast.16 mph89%30.21 "Hg7 mi
2:53 AM42 °FLight rain. Fog.14 mph85%30.22 "Hg6 mi
1:53 AM42 °FLight rain. Mostly cloudy.15 mph85%30.23 "Hg10 mi
12:53 AM42 °FLight rain. Mostly cloudy.15 mph89%30.25 "Hg9 mi
11:53 PM
Sat, Apr 18
42 °FLight rain. Mostly cloudy.17 mph85%30.26 "Hg7 mi
10:53 PM42 °FLight rain. Mostly cloudy.14 mph89%30.27 "Hg9 mi
9:53 PM42 °FLight rain. Mostly cloudy.10 mph89%30.29 "Hg7 mi
8:53 PM42 °FLight rain. Mostly cloudy.9 mph89%30.30 "Hg9 mi
7:53 PM42 °FLight rain. Fog.12 mph89%30.32 "Hg6 mi
6:53 PM42 °FLight rain. Mostly cloudy.13 mph89%30.34 "Hg8 mi
5:53 PM42 °FLight rain. Overcast.14 mph89%30.35 "Hg8 mi
4:53 PM42 °FLight rain. Overcast.15 mph89%30.37 "Hg8 mi
3:53 PM42 °FLight rain. Mostly cloudy.17 mph89%30.38 "Hg8 mi
2:53 PM42 °FLight rain. Mostly cloudy.15 mph85%30.39 "Hg7 mi
1:53 PM42 °FLight rain. Cloudy.23 mph82%30.39 "Hg9 mi
12:53 PM42 °FLight rain. More clouds than sun.23 mph79%30.40 "Hg10 mi
11:53 AM41 °FLight rain. Mostly cloudy.18 mph86%30.40 "Hg10 mi
Weather by CustomWeather, © 2015

See weather overviewHow to use our weather pages